RH
74 81 73 66 69 41 15 15 13 18 30 26 25 22 16 10 8 4 3 3 2 2 2 2 2 4 3 3 4 4 4 4 6 8 8 7 9 10 11 15 15 12 8
41 77 80 75 68 49 23 14 14 20 33 29 25 25 17 13 9 5 3 3 2 2 2 2 2 4 4 4 4 4 4 4 6 6 5 6 9 11 11 10 11 14 12
24 47 85 76 73 56 31 16 16 22 37 34 27 27 21 15 10 5 3 3 2 2 2 2 3 3 5 5 5 5 4 4 6 6 5 6 10 13 11 8 8 10 12
16 32 74 86 79 62 42 21 16 17 36 41 32 31 27 15 11 7 4 3 3 2 2 2 3 3 4 5 5 5 5 4 4 7 6 6 8 13 12 10 8 7 8
11 22 48 94 81 61 49 26 18 19 33 40 38 38 33 20 13 9 5 3 3 2 2 2 3 4 4 4 5 5 5 5 5 5 7 5 7 10 14 13 10 7 7
10 14 54 81 94 70 70 43 21 20 36 41 43 45 41 36 18 22 8 4 2 2 2 3 3 3 4 4 4 5 5 5 5 5 6 6 5 8 10 11 11 12 8
21 11 27 84 88 93 85 82 33 20 26 45 52 50 47 42 28 29 24 6 2 2 2 2 3 3 4 4 4 4 5 6 6 5 5 7 5 7 10 10 10 13 13
21 18 12 65 90 90 94 90 72 22 21 37 57 53 48 48 49 37 45 14 4 2 2 2 3 3 3 4 4 4 4 6 6 6 6 7 7 5 8 10 11 10 13
22 22 14 21 77 91 82 93 94 64 20 38 51 56 51 49 55 49 52 30 10 2 2 2 2 3 4 3 4 4 4 5 5 5 6 6 8 6 7 10 10 10 11
24 22 23 15 32 68 80 81 94 85 52 26 46 54 56 53 53 49 48 44 19 7 2 2 2 2 4 3 4 4 5 5 4 5 5 6 8 7 6 8 10 11 11
32 23 24 26 26 42 62 72 86 96 82 34 33 49 54 54 48 45 46 47 36 19 4 2 2 2 3 4 4 4 4 5 4 5 5 6 6 8 7 6 8 8 10
40 31 24 26 32 38 59 63 73 94 94 76 38 37 46 47 47 44 45 53 49 38 18 3 2 2 2 4 4 4 4 4 5 5 5 5 6 8 7 6 8 9 9
69 48 33 26 31 37 53 70 65 86 96 85 73 41 38 45 39 44 45 46 53 52 36 15 3 3 3 3 5 4 4 4 4 5 5 4 5 6 8 7 7 8 9
57 56 46 32 29 32 49 65 70 66 91 96 94 86 48 46 41 48 53 45 40 48 44 30 8 3 3 3 4 4 4 4 4 4 5 4 4 5 8 8 6 8 8
65 55 54 45 32 35 35 72 79 66 69 95 99 95 88 52 48 48 54 58 47 46 50 39 22 4 3 3 4 4 4 4 4 4 4 4 4 4 6 8 7 7 8
86 75 68 56 41 33 36 45 59 96 93 92 96 96 96 82 53 54 50 59 56 56 60 45 34 16 4 3 3 4 4 4 4 4 4 4 4 4 5 7 8 7 8
74 81 74 66 49 39 32 28 42 96 96 98 95 97 96 96 88 60 56 61 54 56 62 50 35 29 9 3 3 4 5 5 5 4 4 4 4 5 5 6 7 7 8
80 71 71 60 52 44 35 29 32 43 76 95 96 95 93 97 96 94 75 69 63 62 63 57 41 37 17 4 4 4 12 4 5 5 5 5 4 5 5 7 7 8 8
90 78 97 71 49 44 43 29 24 37 61 74 96 97 96 98 96 97 94 88 71 74 74 62 46 37 11 11 4 4 7 20 6 6 6 5 6 6 6 8 8 8 8
76 99 88 88 67 49 38 38 31 28 44 61 97 95 97 97 96 97 94 96 91 84 84 90 75 53 60 12 4 4 4 30 18 10 6 6 6 8 7 11 10 10 8
85 87 96 84 74 50 40 38 35 29 24 59 94 96 96 97 96 96 96 96 94 96 97 98 87 53 33 8 4 5 8 7 56 31 7 7 7 9 10 12 13 12 11
81 81 92 83 74 53 37 34 49 51 33 29 79 68 96 96 96 96 95 96 94 96 96 100 83 51 45 9 5 6 15 8 15 10 10 9 8 9 10 12 14 14 14
82 79 84 77 74 54 53 50 51 44 56 40 45 84 95 97 97 96 96 95 94 96 99 100 93 61 52 15 6 8 9 8 12 15 17 12 38 12 14 14 15 15 15
76 69 78 81 78 58 48 56 62 73 73 52 62 94 97 96 96 96 95 97 95 96 99 100 97 68 57 29 26 8 9 12 11 17 14 24 60 34 47 15 15 16 16
89 76 72 71 81 55 54 49 45 72 79 66 64 82 94 95 95 96 97 96 96 96 94 93 84 60 53 46 42 26 39 46 8 16 11 14 53 23 78 16 17 18 19
90 78 72 78 73 62 64 51 27 27 28 50 59 78 74 80 95 97 96 96 97 97 91 96 90 80 55 50 42 41 71 72 44 45 39 13 15 14 15 19 18 23 26
Wind_Speed
38 37 31 32 36 35 32 32 32 32 30 28 26 24 22 20 17 16 12 11 11 11 12 15 11 17 19 18 17 17 17 16 17 18 19 19 18 16 11 6 4 6 5
42 39 35 34 35 35 34 33 34 34 32 30 27 26 24 21 19 17 15 12 10 10 11 13 12 13 18 17 16 16 15 15 17 18 20 20 21 21 19 13 4 4 5
40 42 38 36 37 37 34 33 34 34 35 32 30 28 27 25 21 19 17 14 11 10 10 12 13 9 15 16 14 14 13 13 15 17 19 19 23 23 23 20 12 5 3
40 44 42 37 40 38 37 34 34 34 35 34 32 30 29 28 24 21 19 17 14 11 10 10 13 11 9 13 13 12 12 11 13 16 18 18 22 24 24 24 20 13 6
43 44 47 41 41 39 38 36 35 36 36 35 34 33 31 30 26 23 21 19 17 13 11 11 11 11 10 10 11 9 10 10 11 14 16 18 21 23 24 24 24 19 14
45 45 47 47 44 42 38 39 38 36 36 36 35 35 34 32 30 25 23 22 20 17 14 12 11 11 10 8 8 8 7 7 9 12 13 15 18 21 24 24 24 23 20
46 48 49 51 48 46 45 41 41 39 38 38 37 36 35 34 34 30 25 24 23 20 17 15 13 12 10 9 6 7 5 4 7 9 11 13 17 17 21 22 24 22 22
49 49 50 54 52 48 46 46 43 42 40 40 39 38 37 37 34 34 29 26 25 23 20 18 15 14 11 9 8 6 5 4 5 7 9 11 14 14 18 20 21 21 20
54 51 51 55 57 54 50 48 48 45 44 42 42 40 39 38 37 34 32 29 26 26 24 21 18 16 14 11 9 7 4 3 3 4 7 8 10 12 13 17 19 20 18
57 56 49 54 57 58 55 53 48 48 47 45 44 43 42 41 39 35 34 32 29 27 27 24 21 19 16 13 10 8 6 3 1 2 4 5 6 10 11 12 15 17 19
60 60 57 52 55 56 56 55 54 51 52 49 48 45 44 43 40 37 36 35 32 29 30 28 24 22 19 17 13 11 9 5 3 1 2 4 3 6 9 9 13 15 18
61 63 61 57 54 57 57 55 53 52 53 52 49 48 47 45 42 40 38 37 35 31 30 30 27 25 23 19 16 14 12 8 6 4 4 4 4 4 7 7 9 12 13
63 60 61 61 56 57 57 55 54 58 52 51 50 50 49 49 47 43 41 38 36 33 31 30 31 27 25 22 20 16 15 11 9 7 7 6 6 3 6 5 5 8 10
66 65 63 65 61 56 58 55 54 56 57 48 49 50 51 51 48 45 43 41 39 36 35 34 33 32 28 28 22 19 19 15 12 11 10 10 9 7 7 5 5 5 5
63 66 65 66 65 60 60 58 53 50 55 52 49 46 53 53 51 48 45 44 42 39 38 37 34 34 31 30 26 24 21 19 17 14 13 12 12 11 10 9 7 7 6
64 65 69 66 64 62 59 60 58 47 63 53 59 58 55 56 55 51 49 46 45 42 42 37 37 36 34 33 29 27 24 22 21 16 17 14 15 13 13 11 11 9 9
68 67 72 70 67 65 63 61 67 72 62 55 69 56 55 52 55 57 53 50 48 47 44 40 38 36 36 34 31 29 25 23 23 19 19 16 16 15 14 13 14 12 12
66 72 72 73 71 69 68 65 65 68 71 64 53 60 62 60 57 64 55 52 52 49 46 43 39 38 37 35 33 31 28 27 24 21 21 18 16 16 15 15 15 15 15
65 70 72 72 73 70 70 69 65 64 64 60 54 51 56 57 59 48 57 60 59 54 50 41 38 38 37 38 35 32 30 28 26 24 22 21 19 17 16 16 17 16 16
78 72 73 75 73 71 71 69 65 67 61 68 58 46 49 51 57 57 55 61 63 60 59 54 47 40 41 42 37 33 30 31 29 26 24 22 21 18 18 17 18 17 17
78 80 69 74 74 70 69 65 65 66 66 70 72 62 54 57 50 56 55 61 57 61 55 54 51 43 43 40 38 35 28 30 31 33 26 24 23 20 20 19 18 19 19
76 78 72 73 72 68 67 65 63 63 67 69 71 70 46 56 56 58 61 60 48 60 47 52 52 42 40 39 39 38 33 34 28 34 30 24 23 23 21 22 21 22 20
76 72 72 71 69 67 63 63 62 66 65 67 69 67 61 52 59 58 58 59 58 49 49 54 53 43 40 40 40 40 34 34 32 36 30 25 25 25 24 25 25 24 22
75 70 70 67 66 67 66 62 58 60 61 65 69 74 66 55 57 53 59 58 56 46 49 55 56 47 45 44 45 41 38 37 36 36 31 29 27 31 28 30 27 27 25
66 67 69 68 65 67 65 66 65 60 60 64 73 74 75 63 58 55 58 62 57 48 48 53 51 49 48 47 47 44 43 43 41 36 33 36 33 34 34 34 31 29 28
65 65 67 69 66 65 65 63 68 64 60 62 71 75 75 77 72 51 62 59 59 55 52 52 54 54 50 51 51 49 48 47 47 44 41 39 36 36 35 34 36 32 32
Wind_Direction
232 230 227 226 222 217 209 202 199 196 191 193 192 193 192 187 184 180 175 161 139 126 118 106 93 100 94 91 84 76 75 71 61 55 43 37 39 39 30 11 62 75 73
232 232 224 227 224 219 215 206 203 197 193 192 197 193 194 192 189 188 180 174 157 145 130 118 107 105 103 97 88 81 73 63 57 48 40 36 41 44 42 38 46 101 95
235 234 226 223 221 222 215 210 208 201 196 193 196 198 195 194 194 191 187 183 176 162 147 129 121 109 113 103 93 87 76 58 54 45 37 35 44 47 48 48 49 63 94
231 230 228 220 217 219 222 210 206 207 201 196 194 198 198 197 197 195 192 190 190 177 166 151 135 128 123 117 103 94 82 60 50 46 35 33 46 50 50 51 51 59 54
231 228 228 219 217 217 218 216 208 205 206 203 198 198 199 199 200 198 196 196 198 192 183 168 150 147 141 134 120 109 90 71 50 48 36 31 41 50 54 55 57 54 54
231 226 226 223 217 217 218 219 214 208 205 208 205 200 200 201 201 202 202 200 204 199 197 183 172 163 160 153 137 122 99 83 63 46 41 32 37 45 53 51 55 56 51
230 226 224 224 221 219 218 219 217 210 207 207 209 206 204 203 203 205 207 206 206 205 204 198 187 177 183 169 167 139 123 90 64 45 45 33 36 42 50 52 49 51 53
234 228 223 222 223 221 219 218 219 216 209 208 208 210 208 207 204 207 207 208 207 211 207 211 199 189 192 195 178 177 153 110 54 29 39 37 37 36 43 47 48 44 50
230 228 223 222 222 223 220 222 219 218 213 210 208 209 212 210 209 208 208 209 208 211 214 212 214 204 195 209 197 198 203 156 74 17 32 31 31 33 44 45 43 41 37
227 227 222 222 222 224 226 224 225 217 219 211 213 208 212 214 212 210 211 212 209 210 215 218 213 220 204 209 219 206 221 216 167 358 15 10 25 26 27 50 44 41 32
226 226 226 223 223 222 225 224 226 216 215 216 212 211 212 216 216 214 214 216 213 211 216 218 216 223 217 211 213 230 223 229 244 241 322 326 359 14 13 31 48 41 38
228 225 226 227 223 221 221 222 221 231 217 214 215 213 214 215 217 216 216 217 218 215 219 221 220 223 227 218 216 226 235 229 246 258 260 286 309 350 354 7 38 40 40
227 226 226 227 225 223 220 220 218 222 215 211 215 216 216 216 217 217 218 219 221 220 222 222 223 223 228 228 221 223 238 237 244 255 262 272 274 288 308 344 12 29 37
223 224 224 223 223 223 220 217 218 221 227 216 216 217 218 219 219 217 218 220 223 222 223 224 223 223 227 232 225 225 237 242 241 250 259 269 273 273 273 295 315 342 24
223 222 221 220 221 220 218 215 214 221 226 226 218 216 218 220 220 220 220 221 223 221 222 223 223 225 225 232 229 228 233 241 246 249 255 265 273 271 268 275 290 302 320
218 219 219 217 219 220 217 214 208 208 229 226 226 221 220 218 220 218 219 221 223 222 223 223 224 225 224 229 232 235 233 240 249 250 258 259 270 268 264 266 272 277 290
219 219 217 218 219 221 218 215 211 211 215 227 219 222 219 221 222 219 217 219 223 222 223 224 226 226 226 227 231 236 240 242 248 249 256 259 269 272 263 267 271 276 280
217 219 219 218 217 218 219 217 217 217 220 229 221 224 228 230 230 226 215 219 221 223 223 224 225 224 226 226 230 233 238 246 250 253 258 259 263 270 261 269 274 276 281
212 219 217 217 216 215 217 217 216 218 218 220 222 215 220 225 235 222 227 213 218 223 222 220 226 226 226 230 229 231 233 247 250 255 259 262 262 264 264 264 271 275 281
212 210 214 217 217 216 217 217 218 217 216 212 218 217 211 217 228 231 228 223 220 222 227 229 218 223 227 230 231 232 235 235 254 259 261 264 265 264 265 264 270 277 283
214 219 211 215 217 216 217 218 219 220 219 214 218 227 221 226 220 227 226 229 224 223 232 231 214 222 228 227 230 232 235 242 234 258 258 262 264 263 266 268 271 277 282
214 217 216 214 216 215 217 218 221 223 223 220 217 222 217 216 222 227 227 230 227 228 227 224 214 223 226 227 229 231 230 238 238 249 253 256 266 268 268 270 271 274 276
215 215 217 216 216 214 217 218 221 222 220 218 214 209 216 224 217 224 225 229 232 223 224 218 217 224 225 226 228 232 232 239 240 247 249 254 265 271 270 267 271 273 274
216 215 216 218 219 216 217 217 217 219 223 220 214 216 219 221 220 228 223 217 230 219 224 220 220 222 223 224 227 229 229 234 241 245 250 253 254 260 271 269 267 271 276
210 216 216 217 219 218 218 219 221 219 221 220 218 220 224 220 228 228 225 224 229 219 222 220 218 222 223 225 229 228 231 235 243 243 251 252 254 252 261 265 267 268 274
209 213 215 217 217 217 218 221 223 225 227 227 222 222 224 226 224 224 215 221 220 220 218 220 224 224 225 227 229 232 237 232 234 242 249 251 251 253 255 256 263 269 279